Location: Unspecified
(41.1637°N, 24.2901°E)
Time: 21:56:29
(UTC+01:00)

ISS - Pass Details

Date: 14 November 2019
Orbit: 412 x 421 km, 51.6° (Epoch: 15 November)

Event Time Altitude Azimuth Distance (km) Brightness Sun altitude
Exits shadow 05:02:36 11° 233° (SW) 1,438 -1.4 -12.7°
Maximum altitude 05:02:42 11° 232° (SW) 1,437 -1.4 -12.6°
Drops below altitude 10° 05:03:40 10° 215° (SW) 1,493 -1.2 -12.5°
Sets 05:07:05 0° 177° (S) 2,348 0.3 -11.8°
